Weather History for Cook, MN

Change the Weather History Date:

Tuesday, March 19, 2013

  Actual Average Record
Temperature  
Mean Temperature 12 °F -  
Max Temperature 19 °F 35 °F 75 °F (2012)
Min Temperature 6 °F 12 °F -4 °F (2006)
Degree Days  
Heating Degree Days 52    
Moisture  
Dew Point 3 °F    
Average Humidity 69    
Maximum Humidity 92    
Minimum Humidity 49    
Precipitation  
Precipitation 0.00 in - - ()
Sea Level Pressure  
Sea Level Pressure 29.83 in    
Wind  
Wind Speed 17 mph (WNW)    
Max Wind Speed 25 mph    
Max Gust Speed 34 mph    
Visibility 6 miles    
Events Snow    
Averages and records for this station are not official NWS values.
T = Trace of Precipitation, MM = Missing Value Source: NWS Daily Summary

Daily Weather History Graph

Daily Weather History Graph

Search for Another Location

Airport:

Trip Planner

Search our weather history database for the weather conditions in past years. The results will help you decide how hot, cold, wet, or windy it might be!

Date:

Astronomy

Mar. 19, 2013 Rise Set
Actual Time 7:15 AM CDT 7:22 PM CDT
Civil Twilight 6:44 AM CDT 7:53 PM CDT
Nautical Twilight 6:08 AM CDT 8:29 PM CDT
Astronomical Twilight 5:30 AM CDT 9:07 PM CDT
Moon 11:41 AM CDT (3/19) 2:33 AM CDT (3/19)
Length of Visible Light 13h 09m
Length of Day
12h 07m
Waxing Crescent, 50% of the Moon is Illuminated
Mar 19
Waxing Crescent
Mar 19
First Quarter
Mar 27
Full
Apr 2
Last Quarter
Apr 10
New

Hourly Weather History & Observations

Time (CDT) Temp. Windchill Dew Point Humidity Pressure Visibility Wind Dir Wind Speed Gust Speed Precip Events Conditions
12:17 AM 14.0 °F -2.5 °F 10.4 °F 86% 29.59 in 3.0 mi WNW 17.3 mph 23.0 mph N/A Snow Light Snow
12:36 AM 14.0 °F -2.5 °F 10.4 °F 86% 29.59 in 4.0 mi West 17.3 mph 21.9 mph N/A Snow Light Snow
12:57 AM 12.2 °F -3.1 °F 10.4 °F 92% 29.60 in 5.0 mi WNW 13.8 mph 18.4 mph N/A Snow Light Snow
1:17 AM 12.2 °F -4.8 °F 8.6 °F 85% 29.60 in 5.0 mi WNW 17.3 mph 21.9 mph N/A Snow Light Snow
1:36 AM 12.2 °F -5.8 °F 8.6 °F 85% 29.61 in 4.0 mi WNW 19.6 mph 25.3 mph N/A Snow Light Snow
1:57 AM 12.2 °F -4.8 °F 8.6 °F 85% 29.62 in 3.0 mi WNW 17.3 mph 27.6 mph N/A Snow Light Snow
2:17 AM 10.4 °F -6.6 °F 6.8 °F 85% 29.63 in 4.0 mi West 16.1 mph 24.2 mph N/A Snow Light Snow
2:36 AM 10.4 °F -7.2 °F 6.8 °F 85% 29.64 in 3.0 mi WNW 17.3 mph 25.3 mph N/A Snow Light Snow
2:57 AM 10.4 °F -6.0 °F 6.8 °F 85% 29.65 in 3.0 mi WNW 15.0 mph 24.2 mph N/A Snow Light Snow
3:17 AM 10.4 °F -5.4 °F 6.8 °F 85% 29.65 in 4.0 mi WNW 13.8 mph 23.0 mph N/A Snow Light Snow
3:36 AM 10.4 °F -7.7 °F 6.8 °F 85% 29.65 in 5.0 mi WNW 18.4 mph 24.2 mph N/A Snow Light Snow
3:57 AM 8.6 °F -9.5 °F 5.0 °F 85% 29.66 in 7.0 mi WNW 17.3 mph 25.3 mph N/A Snow Light Snow
4:17 AM 8.6 °F -8.3 °F 5.0 °F 85% 29.67 in 5.0 mi WNW 15.0 mph 23.0 mph N/A Snow Light Snow
4:36 AM 8.6 °F -8.3 °F 5.0 °F 85% 29.68 in 7.0 mi West 15.0 mph 21.9 mph N/A Snow Light Snow
4:57 AM 8.6 °F -8.3 °F 3.2 °F 79% 29.69 in 7.0 mi West 15.0 mph 20.7 mph N/A Snow Light Snow
5:17 AM 8.6 °F -7.7 °F 3.2 °F 79% 29.70 in 5.0 mi West 13.8 mph 20.7 mph N/A Snow Light Snow
5:36 AM 8.6 °F -7.0 °F 3.2 °F 79% 29.71 in 7.0 mi WNW 12.7 mph 19.6 mph N/A Snow Light Snow
5:57 AM 8.6 °F -7.7 °F 3.2 °F 79% 29.71 in 5.0 mi WNW 13.8 mph 23.0 mph N/A Snow Light Snow
6:16 AM 8.6 °F -8.9 °F 3.2 °F 79% 29.72 in 7.0 mi WNW 16.1 mph 19.6 mph N/A   Overcast
6:36 AM 8.6 °F -8.9 °F 3.2 °F 79% 29.73 in 4.0 mi West 16.1 mph 19.6 mph N/A Snow Light Snow
6:57 AM 8.6 °F -8.9 °F 3.2 °F 79% 29.74 in 5.0 mi WNW 16.1 mph - N/A Snow Light Snow
7:16 AM 6.8 °F -11.8 °F 3.2 °F 85% 29.75 in 3.0 mi West 17.3 mph - N/A Snow Light Snow
7:36 AM 6.8 °F -11.3 °F 3.2 °F 85% 29.77 in 4.0 mi WNW 16.1 mph - N/A Snow Light Snow
7:57 AM 6.8 °F -11.8 °F 3.2 °F 85% 29.78 in 7.0 mi WNW 17.3 mph 26.5 mph N/A   Overcast
8:16 AM 6.8 °F -11.3 °F 3.2 °F 85% 29.78 in 4.0 mi WNW 16.1 mph 24.2 mph N/A   Overcast
8:37 AM 6.8 °F -11.8 °F 3.2 °F 85% 29.79 in 4.0 mi West 17.3 mph 26.5 mph N/A   Overcast
8:56 AM 6.8 °F -10.7 °F 1.4 °F 79% 29.80 in 5.0 mi WNW 15.0 mph 20.7 mph N/A   Haze
9:16 AM 8.6 °F -9.5 °F 1.4 °F 73% 29.81 in 7.0 mi WNW 17.3 mph 23.0 mph N/A   Overcast
9:37 AM 8.6 °F -9.5 °F 1.4 °F 73% 29.82 in 10.0 mi WNW 17.3 mph 23.0 mph N/A   Mostly Cloudy
9:56 AM 8.6 °F -9.5 °F 1.4 °F 73% 29.82 in 7.0 mi West 17.3 mph 23.0 mph N/A   Mostly Cloudy
10:16 AM 8.6 °F -8.9 °F 1.4 °F 73% 29.82 in 7.0 mi West 16.1 mph 24.2 mph N/A   Mostly Cloudy
10:37 AM 8.6 °F -10.0 °F 1.4 °F 73% 29.83 in 5.0 mi WNW 18.4 mph 25.3 mph N/A   Haze
10:56 AM 8.6 °F -11.0 °F 1.4 °F 73% 29.84 in 7.0 mi West 20.7 mph 25.3 mph N/A   Clear
11:16 AM 10.4 °F -7.7 °F 3.2 °F 73% 29.84 in 4.0 mi WNW 18.4 mph 25.3 mph N/A   Haze
11:37 AM 12.2 °F -4.8 °F 3.2 °F 67% 29.84 in 5.0 mi West 17.3 mph 24.2 mph N/A   Haze
11:56 AM 15.8 °F 0.3 °F 3.2 °F 58% 29.84 in 7.0 mi WNW 16.1 mph 24.2 mph N/A   Clear
12:16 PM 15.8 °F -0.6 °F 5.0 °F 62% 29.84 in 7.0 mi WNW 18.4 mph 26.5 mph N/A   Clear
12:37 PM 17.6 °F 0.1 °F 5.0 °F 58% 29.84 in 4.0 mi West 23.0 mph 27.6 mph N/A   Haze
1:16 PM 17.6 °F 1.7 °F 5.0 °F 58% 29.85 in 5.0 mi WNW 18.4 mph 29.9 mph N/A   Haze
1:37 PM 17.6 °F 2.7 °F 3.2 °F 53% 29.86 in 2.5 mi NW 16.1 mph 33.4 mph N/A   Haze
1:56 PM 19.4 °F 5.5 °F 3.2 °F 49% 29.86 in 4.0 mi NW 15.0 mph 33.4 mph N/A   Haze
2:16 PM 19.4 °F 3.2 °F 3.2 °F 49% 29.87 in 4.0 mi WNW 20.7 mph 28.8 mph N/A   Haze
2:37 PM 19.4 °F 2.8 °F 3.2 °F 49% 29.87 in 4.0 mi WNW 21.9 mph 31.1 mph N/A   Haze
2:56 PM 17.6 °F -0.6 °F 5.0 °F 58% 29.88 in 1.8 mi West 25.3 mph 34.5 mph N/A   Haze
3:16 PM 19.4 °F 2.5 °F 3.2 °F 49% 29.88 in 3.0 mi WNW 23.0 mph 34.5 mph N/A   Haze
3:37 PM 19.4 °F 5.5 °F 3.2 °F 49% 29.89 in 7.0 mi WNW 15.0 mph 29.9 mph N/A   Clear
3:56 PM 19.4 °F 2.5 °F 3.2 °F 49% 29.90 in 4.0 mi WNW 23.0 mph 29.9 mph N/A   Haze
4:16 PM 17.6 °F 1.7 °F 5.0 °F 58% 29.90 in 4.0 mi WNW 18.4 mph 27.6 mph N/A   Haze
4:37 PM 19.4 °F 5.5 °F 3.2 °F 49% 29.91 in 7.0 mi WNW 15.0 mph 27.6 mph N/A   Clear
4:56 PM 19.4 °F 6.6 °F 3.2 °F 49% 29.93 in 7.0 mi NW 12.7 mph 31.1 mph N/A   Clear
5:17 PM 17.6 °F 2.7 °F 3.2 °F 53% 29.94 in 4.0 mi WNW 16.1 mph 26.5 mph N/A Snow Light Snow
5:37 PM 17.6 °F 1.7 °F 3.2 °F 53% 29.94 in 5.0 mi WNW 18.4 mph 25.3 mph N/A Snow Light Snow
5:56 PM 17.6 °F 3.7 °F 3.2 °F 53% 29.95 in 10.0 mi WNW 13.8 mph 21.9 mph N/A   Clear
6:17 PM 17.6 °F 3.2 °F 3.2 °F 53% 29.95 in 10.0 mi WNW 15.0 mph 21.9 mph N/A   Clear
6:37 PM 15.8 °F 0.9 °F 3.2 °F 58% 29.96 in 10.0 mi WNW 15.0 mph 24.2 mph N/A   Clear
6:56 PM 15.8 °F 1.4 °F 3.2 °F 58% 29.96 in 7.0 mi WNW 13.8 mph 23.0 mph N/A   Clear
7:17 PM 15.8 °F -0.2 °F 3.2 °F 58% 29.97 in 7.0 mi WNW 17.3 mph 25.3 mph N/A   Scattered Clouds
7:37 PM 14.0 °F -2.5 °F 3.2 °F 62% 29.98 in 10.0 mi WNW 17.3 mph 24.2 mph N/A   Mostly Cloudy
7:56 PM 14.0 °F -2.5 °F 3.2 °F 62% 29.99 in 10.0 mi WNW 17.3 mph 26.5 mph N/A   Overcast
8:17 PM 14.0 °F -3.0 °F 3.2 °F 62% 29.99 in 7.0 mi WNW 18.4 mph 25.3 mph N/A   Overcast
8:37 PM 12.2 °F -4.3 °F 1.4 °F 62% 30.00 in 7.0 mi WNW 16.1 mph 27.6 mph N/A   Overcast
8:56 PM 12.2 °F -2.5 °F 1.4 °F 62% 30.00 in 7.0 mi WNW 12.7 mph 27.6 mph N/A   Overcast
9:16 PM 12.2 °F -3.7 °F 1.4 °F 62% 30.00 in 7.0 mi WNW 15.0 mph 29.9 mph N/A   Overcast
9:37 PM 10.4 °F -4.1 °F 1.4 °F 67% 30.00 in 10.0 mi WNW 11.5 mph 24.2 mph N/A   Mostly Cloudy
9:56 PM 10.4 °F -6.0 °F -0.4 °F 62% 30.01 in 10.0 mi WNW 15.0 mph 20.7 mph N/A   Scattered Clouds
10:17 PM 10.4 °F -4.8 °F -0.4 °F 62% 30.01 in 10.0 mi WNW 12.7 mph 25.3 mph N/A   Clear
10:37 PM 8.6 °F -8.3 °F -0.4 °F 67% 30.01 in 10.0 mi WNW 15.0 mph 23.0 mph N/A   Clear
10:56 PM 8.6 °F -7.0 °F -0.4 °F 67% 30.01 in 10.0 mi WNW 12.7 mph 17.3 mph N/A   Clear
11:16 PM 8.6 °F -8.3 °F -2.2 °F 62% 30.01 in 10.0 mi WNW 15.0 mph 20.7 mph N/A   Clear
11:36 PM 6.8 °F -9.3 °F -2.2 °F 67% 30.00 in 10.0 mi WNW 12.7 mph 18.4 mph N/A   Clear
11:56 PM 6.8 °F -11.8 °F -2.2 °F 67% 30.00 in 10.0 mi WNW 17.3 mph - N/A   Clear